When you browse on this site, cookies collect data to enhance your experience and personalize the content and advertising you see.
Visit our Privacy Policy to learn more. By continuing to use the site, you agree to this use of cookies and data.
  • In Schweiz
  • Länderverzeichnis
  • Für 7 Tage
  • Wassertemperatur
  • Satellitenkarten
  • Wetterkarte
  • Widgets
  • user-avatar
    Anmelden

    Stündliche Wetter Kandahar

    Heute, 18 Juni, Dienstag

    Zeit Temperatur Niederschläge Wind Luftdruck Luftfeuchtigkeit
    00:00 +28°C° 0 mm 2 m/S 667 mmHg 12%
    01:00 +28°C° 0 mm 2 m/S 667 mmHg 13%
    02:00 +27°C° 0 mm 2 m/S 667 mmHg 15%
    03:00 +26°C° 0 mm 1 m/S 667 mmHg 16%
    04:00 +25°C° 0 mm 1 m/S 667 mmHg 18%
    05:00 +28°C° 0 mm 2 m/S 667 mmHg 16%
    06:00 +30°C° 0 mm 2 m/S 668 mmHg 14%
    07:00 +32°C° 0 mm 2 m/S 669 mmHg 12%
    08:00 +35°C° 0 mm 2 m/S 669 mmHg 11%
    09:00 +36°C° 0 mm 3 m/S 669 mmHg 10%
    10:00 +38°C° 0 mm 3 m/S 669 mmHg 9%
    11:00 +39°C° 0 mm 2 m/S 669 mmHg 8%
    12:00 +40°C° 0 mm 2 m/S 669 mmHg 7%
    13:00 +41°C° 0 mm 2 m/S 668 mmHg 6%
    14:00 +41°C° 0 mm 2 m/S 668 mmHg 5%
    15:00 +42°C° 0 mm 3 m/S 667 mmHg 5%
    16:00 +42°C° 0 mm 4 m/S 667 mmHg 5%
    17:00 +41°C° 0 mm 4 m/S 666 mmHg 5%
    18:00 +38°C° 0 mm 4 m/S 666 mmHg 6%
    19:00 +36°C° 0 mm 5 m/S 666 mmHg 6%
    20:00 +35°C° 0 mm 4 m/S 666 mmHg 6%
    21:00 +33°C° 0 mm 3 m/S 666 mmHg 6%
    22:00 +31°C° 0 mm 3 m/S 666 mmHg 6%
    23:00 +29°C° 0 mm 2 m/S 666 mmHg 7%

    Morgen, 19 Juni, Mittwoch

    Zeit Temperatur Niederschläge Wind Luftdruck Luftfeuchtigkeit
    00:00 +28°C° 0 mm 2 m/S 666 mmHg 8%
    01:00 +27°C° 0 mm 1 m/S 665 mmHg 8%
    02:00 +26°C° 0 mm 1 m/S 665 mmHg 9%
    03:00 +26°C° 0 mm 2 m/S 665 mmHg 9%
    04:00 +26°C° 0 mm 2 m/S 666 mmHg 10%
    05:00 +28°C° 0 mm 2 m/S 666 mmHg 13%
    06:00 +30°C° 0 mm 3 m/S 667 mmHg 17%
    07:00 +31°C° 0 mm 3 m/S 668 mmHg 20%
    08:00 +34°C° 0 mm 3 m/S 669 mmHg 16%
    09:00 +36°C° 0 mm 4 m/S 669 mmHg 12%
    10:00 +38°C° 0 mm 4 m/S 669 mmHg 8%
    11:00 +40°C° 0 mm 4 m/S 669 mmHg 7%
    12:00 +41°C° 0 mm 4 m/S 669 mmHg 6%
    13:00 +42°C° 0 mm 4 m/S 669 mmHg 4%
    14:00 +42°C° 0 mm 4 m/S 668 mmHg 4%
    15:00 +42°C° 0 mm 4 m/S 668 mmHg 4%
    16:00 +42°C° 0 mm 4 m/S 667 mmHg 4%
    17:00 +39°C° 0 mm 3 m/S 667 mmHg 5%
    18:00 +36°C° 0 mm 3 m/S 667 mmHg 6%
    19:00 +34°C° 0 mm 2 m/S 666 mmHg 7%
    20:00 +32°C° 0 mm 2 m/S 667 mmHg 7%
    21:00 +31°C° 0 mm 2 m/S 667 mmHg 8%
    22:00 +30°C° 0 mm 2 m/S 667 mmHg 9%
    23:00 +29°C° 0 mm 2 m/S 667 mmHg 9%

    übermorgen, 20 Juni, Donnerstag

    Zeit Temperatur Niederschläge Wind Luftdruck Luftfeuchtigkeit
    00:00 +28°C° 0 mm 1 m/S 666 mmHg 10%
    01:00 +25°C° 0 mm 0 m/S 666 mmHg 11%
    02:00 +26°C° 0 mm 1 m/S 666 mmHg 11%
    03:00 +26°C° 0 mm 1 m/S 666 mmHg 11%
    04:00 +26°C° 0 mm 2 m/S 667 mmHg 11%
    05:00 +28°C° 0 mm 2 m/S 668 mmHg 15%
    06:00 +30°C° 0 mm 3 m/S 668 mmHg 18%
    07:00 +33°C° 0 mm 4 m/S 669 mmHg 21%
    08:00 +35°C° 0 mm 4 m/S 670 mmHg 18%
    09:00 +37°C° 0 mm 3 m/S 670 mmHg 14%
    10:00 +39°C° 0 mm 3 m/S 671 mmHg 11%
    11:00 +40°C° 0 mm 3 m/S 670 mmHg 9%
    12:00 +42°C° 0 mm 4 m/S 670 mmHg 7%
    13:00 +43°C° 0 mm 4 m/S 670 mmHg 5%
    14:00 +43°C° 0 mm 4 m/S 669 mmHg 5%
    15:00 +43°C° 0 mm 4 m/S 669 mmHg 4%
    16:00 +43°C° 0 mm 4 m/S 668 mmHg 4%
    17:00 +41°C° 0 mm 4 m/S 668 mmHg 5%
    18:00 +38°C° 0 mm 3 m/S 668 mmHg 5%
    19:00 +35°C° 0 mm 3 m/S 667 mmHg 6%
    20:00 +34°C° 0 mm 2 m/S 667 mmHg 7%
    21:00 +31°C° 0 mm 2 m/S 667 mmHg 8%
    22:00 +30°C° 0 mm 1 m/S 667 mmHg 8%
    23:00 +29°C° 0 mm 1 m/S 667 mmHg 9%

    21 Juni, Freitag

    Zeit Temperatur Niederschläge Wind Luftdruck Luftfeuchtigkeit
    00:00 +28°C° 0 mm 1 m/S 667 mmHg 9%
    01:00 +27°C° 0 mm 1 m/S 666 mmHg 10%
    02:00 +27°C° 0 mm 1 m/S 666 mmHg 10%
    03:00 +26°C° 0 mm 1 m/S 666 mmHg 10%
    04:00 +25°C° 0 mm 1 m/S 666 mmHg 11%
    05:00 +28°C° 0 mm 1 m/S 667 mmHg 10%
    06:00 +30°C° 0 mm 2 m/S 668 mmHg 8%
    07:00 +34°C° 0 mm 2 m/S 669 mmHg 7%
    08:00 +35°C° 0 mm 3 m/S 670 mmHg 7%
    09:00 +37°C° 0 mm 4 m/S 670 mmHg 7%
    10:00 +40°C° 0 mm 5 m/S 671 mmHg 7%
    11:00 +41°C° 0 mm 5 m/S 670 mmHg 7%
    12:00 +42°C° 0 mm 5 m/S 670 mmHg 6%
    13:00 +43°C° 0 mm 5 m/S 670 mmHg 5%
    14:00 +43°C° 0 mm 5 m/S 669 mmHg 5%
    15:00 +45°C° 0 mm 5 m/S 669 mmHg 5%
    16:00 +45°C° 0 mm 5 m/S 668 mmHg 5%
    17:00 +41°C° 0 mm 5 m/S 668 mmHg 5%
    18:00 +38°C° 0 mm 4 m/S 667 mmHg 6%
    19:00 +35°C° 0 mm 3 m/S 667 mmHg 7%
    20:00 +34°C° 0 mm 3 m/S 667 mmHg 7%
    21:00 +33°C° 0 mm 3 m/S 667 mmHg 8%
    22:00 +30°C° 0 mm 2 m/S 667 mmHg 8%
    23:00 +29°C° 0 mm 2 m/S 667 mmHg 9%

    22 Juni, Samstag

    Zeit Temperatur Niederschläge Wind Luftdruck Luftfeuchtigkeit
    00:00 +27°C° 0 mm 2 m/S 666 mmHg 10%
    01:00 +26°C° 0 mm 1 m/S 666 mmHg 11%
    02:00 +25°C° 0 mm 1 m/S 666 mmHg 12%
    03:00 +25°C° 0 mm 1 m/S 666 mmHg 13%
    04:00 +24°C° 0 mm 1 m/S 666 mmHg 13%
    05:00 +26°C° 0 mm 1 m/S 667 mmHg 12%
    06:00 +28°C° 0 mm 1 m/S 668 mmHg 11%
    07:00 +30°C° 0 mm 1 m/S 670 mmHg 10%
    08:00 +34°C° 0 mm 2 m/S 670 mmHg 9%
    09:00 +36°C° 0 mm 3 m/S 670 mmHg 8%
    10:00 +38°C° 0 mm 4 m/S 671 mmHg 7%
    11:00 +40°C° 0 mm 4 m/S 670 mmHg 6%
    12:00 +42°C° 0 mm 4 m/S 670 mmHg 6%
    13:00 +43°C° 0 mm 3 m/S 670 mmHg 5%
    14:00 +43°C° 0 mm 3 m/S 669 mmHg 5%
    15:00 +42°C° 0 mm 2 m/S 669 mmHg 5%
    16:00 +42°C° 0 mm 2 m/S 668 mmHg 5%
    17:00 +40°C° 0 mm 2 m/S 668 mmHg 6%
    18:00 +37°C° 0 mm 2 m/S 667 mmHg 7%
    19:00 +34°C° 0 mm 2 m/S 667 mmHg 8%
    20:00 +34°C° 0 mm 2 m/S 667 mmHg 8%
    21:00 +32°C° 0 mm 2 m/S 668 mmHg 9%
    22:00 +31°C° 0 mm 1 m/S 668 mmHg 9%
    23:00 +30°C° 0 mm 1 m/S 667 mmHg 10%

    23 Juni, Sonntag

    Zeit Temperatur Niederschläge Wind Luftdruck Luftfeuchtigkeit
    00:00 +29°C° 0 mm 1 m/S 667 mmHg 10%
    01:00 +28°C° 0 mm 1 m/S 667 mmHg 11%
    02:00 +28°C° 0 mm 1 m/S 667 mmHg 11%
    03:00 +27°C° 0 mm 1 m/S 667 mmHg 12%
    04:00 +26°C° 0 mm 1 m/S 667 mmHg 12%
    05:00 +29°C° 0 mm 1 m/S 668 mmHg 12%
    06:00 +31°C° 0 mm 1 m/S 669 mmHg 11%
    07:00 +34°C° 0 mm 1 m/S 670 mmHg 10%
    08:00 +37°C° 0 mm 2 m/S 670 mmHg 10%
    09:00 +38°C° 0 mm 3 m/S 670 mmHg 10%
    10:00 +41°C° 0 mm 4 m/S 670 mmHg 10%
    11:00 +42°C° 0 mm 4 m/S 670 mmHg 8%
    12:00 +45°C° 0 mm 5 m/S 669 mmHg 6%
    13:00 +46°C° 0 mm 5 m/S 669 mmHg 4%
    14:00 +46°C° 0 mm 5 m/S 669 mmHg 4%
    15:00 +46°C° 0 mm 5 m/S 668 mmHg 4%
    16:00 +44°C° 0 mm 4 m/S 667 mmHg 4%
    17:00 +42°C° 0 mm 4 m/S 667 mmHg 5%
    18:00 +40°C° 0 mm 4 m/S 667 mmHg 6%
    19:00 +37°C° 0 mm 4 m/S 666 mmHg 7%
    20:00 +35°C° 0 mm 3 m/S 666 mmHg 8%
    21:00 +33°C° 0 mm 3 m/S 666 mmHg 8%
    22:00 +31°C° 0 mm 2 m/S 666 mmHg 9%
    23:00 +30°C° 0 mm 2 m/S 666 mmHg 10%
    Mehr zeigen